Location: Newark
(50.0306°N, 2.3272°E)
Time: 10:54:39
(UTC+00:00)

A-11 Canister half - Pass Details

Date: 10 December 2019
Orbit: 1525 x 1684 km, 47.3° (Epoch: 21 January)

Event Time Altitude Azimuth Distance (km) Brightness Sun altitude
Rises 13:18:12 0° 289° (WNW) 4,917 11.7 14.1°
Reaches altitude 10° 13:22:18 10° 275° (W) 3,907 11.4 13.8°
Maximum altitude 13:29:15 22° 230° (SW) 3,020 12.0 13.4°
Drops below altitude 10° 13:36:03 10° 185° (S) 3,810 12.7 12.9°
Sets 13:40:02 0° 171° (S) 4,764 12.5 12.6°
